| time (UTC) | temp C | wind direction | speed KPH | gust KPH | rain 1hr cm | rain 24hr cm | rain mn cm | humidity % | barometer mb |
| 20260503050204 | 8 | 140 | 0.0 | 0.0 | 0.03 | 0.43 | 0.28 | 63 | 1011.6 |
| 20260503045703 | 8 | 50 | 0.0 | 0.0 | 0.03 | 0.43 | 0.28 | 63 | 1011.4 |
| 20260503045203 | 8 | 14 | 0.0 | 0.0 | 0.05 | 0.43 | 0.28 | 62 | 1011.5 |
| 20260503044704 | 8 | 5 | 0.0 | 0.0 | 0.05 | 0.43 | 0.28 | 62 | 1011.5 |
| 20260503044201 | 8 | 355 | 0.0 | 0.0 | 0.05 | 0.43 | 0.28 | 62 | 1011.4 |
| 20260503043703 | 8 | 306 | 0.0 | 0.0 | 0.05 | 0.43 | 0.28 | 62 | 1011.4 |
| 20260503043205 | 8 | 15 | 0.0 | 0.0 | 0.05 | 0.43 | 0.28 | 62 | 1011.5 |
| 20260503042705 | 8 | 222 | 0.0 | 0.0 | 0.05 | 0.43 | 0.28 | 62 | 1011.4 |
| 20260503042204 | 8 | 12 | 0.0 | 0.0 | 0.05 | 0.43 | 0.28 | 62 | 1011.5 |
| 20260503041703 | 8 | 15 | 0.0 | 0.0 | 0.05 | 0.43 | 0.25 | 62 | 1011.4 |
| 20260503041205 | 8 | 90 | 0.0 | 0.0 | 0.05 | 0.41 | 0.25 | 62 | 1011.5 |
| 20260503040702 | 8 | 158 | 0.0 | 0.0 | 0.05 | 0.41 | 0.25 | 62 | 1011.5 |
| 20260503040203 | 8 | 5 | 0.0 | 0.0 | 0.05 | 0.41 | 0.25 | 62 | 1011.6 |
| 20260503035703 | 8 | 348 | 0.0 | 0.0 | 0.05 | 0.41 | 0.25 | 62 | 1011.6 |
| 20260503035202 | 8 | 22 | 0.0 | 0.0 | 0.05 | 0.38 | 0.23 | 62 | 1011.6 |
| 20260503034705 | 8 | 123 | 0.0 | 0.0 | 0.05 | 0.38 | 0.23 | 62 | 1011.6 |
| 20260503034203 | 8 | 17 | 0.0 | 0.0 | 0.05 | 0.38 | 0.23 | 62 | 1011.6 |
| 20260503033705 | 8 | 51 | 0.0 | 0.0 | 0.05 | 0.38 | 0.23 | 62 | 1011.6 |
| 20260503033448 | 8 | 140 | 0.0 | 0.0 | 0.05 | 0.38 | 0.23 | 62 | 1011.6 |
| 20260503032703 | 8 | 19 | 0.0 | 0.0 | 0.05 | 0.38 | 0.23 | 62 | 1011.7 |
| 20260503032203 | 8 | 71 | 0.0 | 0.0 | 0.05 | 0.38 | 0.23 | 62 | 1011.7 |
| 20260503031945 | 8 | 0 | 0.0 | 0.0 | 0.05 | 0.36 | 0.23 | 62 | 1011.7 |
| 20260503031204 | 8 | 72 | 0.0 | 0.0 | 0.05 | 0.36 | 0.23 | 62 | 1011.7 |
| 20260503030735 | 9 | 346 | 0.0 | 0.0 | 0.05 | 0.36 | 0.23 | 62 | 1011.6 |
| 20260503030725 | 8 | 223 | 0.0 | 0.0 | 0.05 | 0.36 | 0.23 | 62 | 1011.6 |
| 20260503025705 | 9 | 344 | 0.0 | 0.0 | 0.05 | 0.33 | 0.20 | 62 | 1011.6 |
| 20260503025204 | 9 | 215 | 0.0 | 0.0 | 0.05 | 0.33 | 0.20 | 62 | 1011.6 |
| 20260503024703 | 9 | 157 | 0.0 | 0.0 | 0.05 | 0.33 | 0.20 | 62 | 1011.6 |
| 20260503024203 | 9 | 35 | 0.0 | 0.0 | 0.05 | 0.33 | 0.20 | 62 | 1011.6 |
| 20260503023704 | 9 | 23 | 0.0 | 0.0 | 0.05 | 0.33 | 0.20 | 62 | 1011.6 |
| 20260503023159 | 9 | 152 | 0.0 | 0.0 | 0.03 | 0.33 | 0.18 | 62 | 1011.6 |
| 20260503022658 | 9 | 134 | 0.0 | 0.0 | 0.03 | 0.33 | 0.18 | 62 | 1011.6 |
| 20260503022156 | 9 | 148 | 0.0 | 0.0 | 0.03 | 0.33 | 0.18 | 62 | 1011.6 |
| 20260503021658 | 9 | 143 | 0.0 | 0.0 | 0.05 | 0.33 | 0.18 | 62 | 1011.6 |
| 20260503021155 | 9 | 12 | 0.0 | 0.0 | 0.05 | 0.33 | 0.18 | 62 | 1011.6 |
| 20260503020655 | 9 | 23 | 0.0 | 0.0 | 0.05 | 0.33 | 0.18 | 62 | 1011.7 |
| 20260503020436 | 9 | 355 | 0.0 | 0.0 | 0.05 | 0.30 | 0.15 | 62 | 1011.7 |
| 20260503015657 | 9 | 355 | 0.0 | 0.0 | 0.08 | 0.30 | 0.15 | 62 | 1011.6 |
| 20260503015154 | 9 | 348 | 0.0 | 0.0 | 0.08 | 0.30 | 0.15 | 62 | 1011.7 |
| 20260503014937 | 9 | 34 | 0.0 | 0.0 | 0.10 | 0.30 | 0.15 | 62 | 1011.7 |
| 20260503014152 | 9 | 22 | 0.0 | 0.0 | 0.10 | 0.30 | 0.15 | 62 | 1011.6 |
| 20260503013936 | 9 | 338 | 0.0 | 0.0 | 0.13 | 0.30 | 0.15 | 62 | 1011.7 |
| 20260503013151 | 9 | 350 | 0.0 | 0.0 | 0.13 | 0.30 | 0.15 | 62 | 1011.7 |
| 20260503012651 | 9 | 23 | 0.0 | 0.0 | 0.13 | 0.30 | 0.15 | 62 | 1011.7 |
| 20260503012433 | 9 | 194 | 0.0 | 0.0 | 0.13 | 0.30 | 0.15 | 62 | 1011.7 |
| 20260503011935 | 9 | 244 | 0.0 | 0.0 | 0.10 | 0.28 | 0.15 | 62 | 1011.8 |
| 20260503011436 | 9 | 237 | 0.0 | 0.0 | 0.08 | 0.25 | 0.13 | 62 | 1011.8 |
| 20260503010649 | 9 | 9 | 0.0 | 0.0 | 0.10 | 0.25 | 0.13 | 62 | 1011.8 |
| 20260503010151 | 9 | 9 | 0.0 | 0.0 | 0.08 | 0.23 | 0.10 | 62 | 1011.9 |
| 20260503005647 | 9 | 18 | 0.0 | 0.0 | 0.05 | 0.23 | 0.08 | 62 | 1011.9 |
| 20260503005432 | 9 | 88 | 0.0 | 0.0 | 0.08 | 0.23 | 0.08 | 62 | 1011.9 |
| 20260503004644 | 9 | 10 | 0.0 | 0.0 | 0.05 | 0.20 | 0.05 | 62 | 1012.0 |
| 20260503004141 | 9 | 17 | 0.0 | 0.0 | 0.05 | 0.20 | 0.05 | 62 | 1012.0 |
| 20260503003707 | 9 | 112 | 0.0 | 0.0 | 0.05 | 0.18 | 0.05 | 62 | 1012.1 |
| 20260503003657 | 9 | 112 | 0.0 | 0.0 | 0.05 | 0.18 | 0.05 | 62 | 1012.0 |
| 20260503002639 | 9 | 111 | 0.0 | 0.0 | 0.05 | 0.18 | 0.05 | 62 | 1012.1 |
| 20260503002137 | 9 | 74 | 0.0 | 0.0 | 0.05 | 0.18 | 0.05 | 62 | 1012.1 |
| 20260503001636 | 9 | 74 | 0.0 | 0.0 | 0.05 | 0.18 | 0.05 | 62 | 1012.2 |
| 20260503001133 | 9 | 110 | 0.0 | 0.0 | 0.05 | 0.18 | 0.05 | 62 | 1012.2 |
| 20260503000631 | 9 | 79 | 0.0 | 0.0 | 0.03 | 0.15 | 0.03 | 62 | 1012.2 |
| 20260503000131 | 9 | 109 | 0.0 | 0.0 | 0.03 | 0.15 | 0.03 | 62 | 1012.2 |
| 20260502235633 | 9 | 115 | 0.0 | 0.0 | 0.03 | 0.15 | 0.03 | 62 | 1012.3 |
| 20260502235416 | 9 | 19 | 0.0 | 0.0 | 0.03 | 0.15 | 0.00 | 62 | 1012.3 |
| 20260502234915 | 9 | 129 | 0.0 | 0.0 | 0.03 | 0.15 | 0.00 | 62 | 1012.2 |
| 20260502234132 | 9 | 154 | 0.0 | 0.0 | 0.03 | 0.15 | 0.00 | 62 | 1012.3 |
| 20260502233631 | 9 | 128 | 0.0 | 0.0 | 0.03 | 0.15 | 0.00 | 62 | 1012.3 |
| 20260502233134 | 9 | 9 | 0.0 | 0.0 | 0.03 | 0.15 | 0.00 | 62 | 1012.3 |
| 20260502232632 | 9 | 149 | 0.0 | 0.0 | 0.03 | 0.15 | 0.00 | 62 | 1012.3 |
| 20260502232131 | 9 | 105 | 0.0 | 0.0 | 0.03 | 0.15 | 0.00 | 62 | 1012.3 |
| 20260502231631 | 9 | 350 | 0.0 | 0.0 | 0.03 | 0.15 | 0.00 | 62 | 1012.3 |
| 20260502231131 | 9 | 5 | 0.0 | 0.0 | 0.03 | 0.15 | 0.00 | 62 | 1012.4 |
| 20260502230915 | 9 | 0 | 0.0 | 0.0 | 0.03 | 0.15 | 0.00 | 62 | 1012.4 |
| 20260502230131 | 9 | 347 | 0.0 | 0.0 | 0.03 | 0.15 | 0.00 | 62 | 1012.4 |
| 20260502225632 | 9 | 146 | 0.0 | 0.0 | 0.03 | 0.15 | 0.13 | 62 | 1012.4 |
| 20260502225132 | 9 | 0 | 0.0 | 0.0 | 0.00 | 0.13 | 0.13 | 62 | 1012.4 |
| 20260502224914 | 9 | 34 | 0.0 | 0.0 | 0.00 | 0.13 | 0.13 | 62 | 1012.4 |
| 20260502224132 | 9 | 28 | 0.0 | 0.0 | 0.00 | 0.13 | 0.13 | 62 | 1012.5 |
| 20260502223633 | 9 | 112 | 0.0 | 0.0 | 0.00 | 0.13 | 0.13 | 62 | 1012.4 |
| 20260502223132 | 9 | 78 | 0.0 | 0.0 | 0.00 | 0.13 | 0.13 | 62 | 1012.4 |
| 20260502222632 | 9 | 17 | 0.0 | 0.0 | 0.00 | 0.13 | 0.13 | 62 | 1012.4 |
| 20260502222415 | 9 | 92 | 0.0 | 0.0 | 0.00 | 0.13 | 0.13 | 62 | 1012.4 |
| 20260502221631 | 9 | 355 | 0.0 | 0.0 | 0.00 | 0.13 | 0.13 | 62 | 1012.4 |
| 20260502221208 | 9 | 28 | 0.0 | 0.0 | 0.00 | 0.13 | 0.13 | 62 | 1012.4 |
| 20260502221157 | 9 | 11 | 0.0 | 0.0 | 0.00 | 0.13 | 0.13 | 62 | 1012.4 |
| 20260502220418 | 9 | 127 | 0.0 | 0.0 | 0.00 | 0.13 | 0.13 | 62 | 1012.3 |
| 20260502215633 | 9 | 355 | 0.0 | 0.0 | 0.00 | 0.13 | 0.13 | 62 | 1012.3 |
| 20260502215132 | 9 | 17 | 0.0 | 0.0 | 0.00 | 0.13 | 0.13 | 62 | 1012.4 |
| 20260502214631 | 9 | 141 | 0.0 | 0.0 | 0.00 | 0.13 | 0.13 | 62 | 1012.4 |
| 20260502214132 | 9 | 5 | 0.0 | 0.0 | 0.00 | 0.13 | 0.13 | 62 | 1012.4 |
| 20260502213631 | 9 | 40 | 0.0 | 0.0 | 0.00 | 0.13 | 0.13 | 62 | 1012.4 |
| 20260502213418 | 9 | 126 | 0.0 | 0.0 | 0.00 | 0.13 | 0.13 | 62 | 1012.5 |
| 20260502212632 | 9 | 163 | 0.0 | 0.0 | 0.00 | 0.13 | 0.13 | 62 | 1012.5 |
| 20260502212417 | 10 | 63 | 0.0 | 0.0 | 0.00 | 0.13 | 0.13 | 62 | 1012.6 |
| 20260502211632 | 10 | 90 | 0.0 | 0.0 | 0.00 | 0.15 | 0.13 | 62 | 1012.5 |
| 20260502211132 | 10 | 37 | 0.0 | 0.0 | 0.00 | 0.15 | 0.13 | 62 | 1012.5 |
| 20260502210632 | 10 | 19 | 0.0 | 0.0 | 0.00 | 0.15 | 0.13 | 62 | 1012.6 |
| 20260502210131 | 10 | 338 | 0.0 | 0.0 | 0.00 | 0.18 | 0.13 | 62 | 1012.6 |
| 20260502205630 | 10 | 42 | 0.0 | 0.0 | 0.00 | 0.23 | 0.13 | 62 | 1012.6 |
| 20260502205132 | 10 | 150 | 0.0 | 0.0 | 0.00 | 0.23 | 0.13 | 62 | 1012.5 |
| 20260502204914 | 10 | 37 | 0.0 | 0.0 | 0.00 | 0.23 | 0.13 | 62 | 1012.6 |
| 20260502204132 | 10 | 5 | 0.0 | 0.0 | 0.00 | 0.23 | 0.13 | 62 | 1012.5 |
| 20260502203630 | 10 | 10 | 0.0 | 0.0 | 0.00 | 0.25 | 0.13 | 62 | 1012.5 |
| 20260502203130 | 10 | 120 | 0.0 | 0.0 | 0.00 | 0.25 | 0.13 | 62 | 1012.5 |
| 20260502202631 | 10 | 91 | 0.0 | 0.0 | 0.00 | 0.25 | 0.13 | 61 | 1012.5 |
| 20260502202132 | 10 | 144 | 0.0 | 0.0 | 0.00 | 0.25 | 0.13 | 61 | 1012.5 |
| 20260502201633 | 10 | 137 | 0.0 | 0.0 | 0.00 | 0.25 | 0.13 | 61 | 1012.5 |
| 20260502201132 | 10 | 138 | 0.0 | 0.0 | 0.00 | 0.25 | 0.13 | 61 | 1012.4 |
| 20260502200632 | 10 | 345 | 0.0 | 0.0 | 0.00 | 0.25 | 0.13 | 61 | 1012.4 |
| 20260502200130 | 10 | 119 | 0.0 | 0.0 | 0.00 | 0.25 | 0.13 | 61 | 1012.4 |
| 20260502195630 | 10 | 98 | 0.0 | 0.0 | 0.00 | 0.25 | 0.13 | 61 | 1012.3 |
| 20260502195131 | 10 | 68 | 0.0 | 0.0 | 0.00 | 0.25 | 0.13 | 61 | 1012.1 |
| 20260502194707 | 10 | 257 | 0.0 | 0.0 | 0.00 | 0.25 | 0.13 | 61 | 1011.9 |
| 20260502194656 | 10 | 31 | 0.0 | 0.0 | 0.00 | 0.25 | 0.13 | 61 | 1012.0 |
| 20260502193716 | 10 | 58 | 0.0 | 0.0 | 0.00 | 0.25 | 0.13 | 61 | 1011.7 |
| 20260502193701 | 10 | 0 | 0.0 | 0.0 | 0.00 | 0.25 | 0.13 | 61 | 1011.8 |
| 20260502192908 | 10 | 172 | 0.0 | 0.0 | 0.00 | 0.25 | 0.13 | 61 | 1011.6 |
| 20260502192126 | 10 | 143 | 0.0 | 0.0 | 0.00 | 0.25 | 0.13 | 61 | 1011.6 |
| 20260502191625 | 10 | 313 | 0.0 | 0.0 | 0.00 | 0.25 | 0.13 | 61 | 1011.6 |
| 20260502191123 | 11 | 135 | 0.0 | 0.0 | 0.00 | 0.25 | 0.13 | 61 | 1011.5 |
| 20260502190652 | 11 | 338 | 0.0 | 0.0 | 0.00 | 0.25 | 0.13 | 61 | 1011.3 |
| 20260502190642 | 11 | 310 | 0.0 | 0.0 | 0.00 | 0.25 | 0.13 | 61 | 1011.4 |
| 20260502185620 | 11 | 146 | 0.0 | 0.0 | 0.00 | 0.25 | 0.13 | 61 | 1011.2 |
| 20260502185406 | 11 | 0 | 0.0 | 0.0 | 0.00 | 0.25 | 0.13 | 61 | 1011.1 |
| 20260502184620 | 11 | 26 | 0.0 | 0.0 | 0.00 | 0.25 | 0.13 | 61 | 1011.1 |
| 20260502184116 | 12 | 119 | 0.0 | 0.0 | 0.00 | 0.25 | 0.13 | 61 | 1011.2 |
| 20260502183617 | 12 | 178 | 0.0 | 0.0 | 0.00 | 0.25 | 0.13 | 61 | 1011.2 |
| 20260502183403 | 13 | 90 | 0.0 | 0.0 | 0.00 | 0.25 | 0.13 | 60 | 1011.2 |
| 20260502182616 | 13 | 53 | 0.0 | 0.0 | 0.00 | 0.25 | 0.13 | 60 | 1011.1 |
| 20260502182115 | 13 | 71 | 0.0 | 0.0 | 0.00 | 0.25 | 0.13 | 60 | 1011.1 |
| 20260502181907 | 13 | 22 | 0.0 | 0.0 | 0.00 | 0.25 | 0.13 | 60 | 1011.1 |
| 20260502181400 | 14 | 355 | 0.0 | 0.0 | 0.00 | 0.25 | 0.13 | 60 | 1011.1 |
| 20260502180612 | 14 | 286 | 0.0 | 0.0 | 0.00 | 0.25 | 0.13 | 60 | 1011.0 |
| 20260502180112 | 14 | 284 | 0.0 | 0.0 | 0.00 | 0.25 | 0.13 | 60 | 1010.9 |
| 20260502170103 | 15 | 260 | 0.0 | 0.0 | 0.00 | 0.30 | 0.13 | 59 | 1010.9 |
| 20260502164104 | 15 | 274 | 0.0 | 0.0 | 0.00 | 0.33 | 0.13 | 59 | 1010.9 |
| 20260502163843 | 15 | 279 | 0.0 | 0.0 | 0.00 | 0.33 | 0.13 | 59 | 1010.9 |
| 20260502163103 | 16 | 259 | 0.0 | 0.0 | 0.00 | 0.33 | 0.13 | 59 | 1010.9 |
| 20260502162603 | 16 | 246 | 0.0 | 0.0 | 0.00 | 0.33 | 0.13 | 59 | 1010.8 |
| 20260502162101 | 16 | 260 | 0.0 | 0.0 | 0.00 | 0.33 | 0.13 | 59 | 1010.8 |
| 20260502161605 | 16 | 223 | 0.0 | 0.0 | 0.00 | 0.33 | 0.13 | 59 | 1010.8 |
| 20260502161346 | 16 | 282 | 0.0 | 0.0 | 0.00 | 0.33 | 0.13 | 59 | 1010.7 |
| 20260502160634 | 15 | 270 | 0.0 | 0.0 | 0.00 | 0.33 | 0.13 | 59 | 1010.8 |
| 20260502160624 | 16 | 264 | 0.0 | 0.0 | 0.00 | 0.33 | 0.13 | 59 | 1010.8 |
| 20260502151602 | 14 | 275 | 0.0 | 0.0 | 0.00 | 0.33 | 0.13 | 58 | 1010.9 |
| 20260502151103 | 14 | 259 | 0.0 | 0.0 | 0.00 | 0.36 | 0.13 | 58 | 1010.9 |
| 20260502150603 | 14 | 252 | 0.0 | 0.0 | 0.00 | 0.36 | 0.13 | 58 | 1010.9 |
| 20260502150103 | 14 | 261 | 0.0 | 0.0 | 0.00 | 0.36 | 0.13 | 58 | 1011.1 |
| 20260502130603 | 15 | 238 | 0.0 | 0.0 | 0.08 | 0.33 | 0.08 | 59 | 1011.5 |
| 20260502130103 | 15 | 236 | 0.0 | 0.0 | 0.05 | 0.30 | 0.05 | 59 | 1011.5 |
| 20260502123603 | 15 | 296 | 0.0 | 0.0 | 0.00 | 0.23 | 0.00 | 59 | 1011.5 |
| 20260502123347 | 15 | 55 | 0.0 | 0.0 | 0.00 | 0.23 | 0.00 | 59 | 1011.5 |
| 20260502122848 | 15 | 236 | 0.0 | 0.0 | 0.00 | 0.23 | 0.00 | 59 | 1011.5 |
| 20260502122102 | 15 | 30 | 0.0 | 0.0 | 0.00 | 0.23 | 0.00 | 59 | 1011.4 |
| 20260502121849 | 15 | 5 | 0.0 | 0.0 | 0.00 | 0.23 | 0.00 | 59 | 1011.5 |
| 20260502121103 | 15 | 272 | 0.0 | 0.0 | 0.00 | 0.23 | 0.00 | 59 | 1011.4 |
| 20260502120603 | 15 | 43 | 0.0 | 0.0 | 0.00 | 0.23 | 0.00 | 59 | 1011.5 |
| 20260502115846 | 15 | 292 | 0.0 | 0.0 | 0.00 | 0.23 | 0.00 | 59 | 1011.5 |
| 20260502115103 | 15 | 268 | 0.0 | 0.0 | 0.00 | 0.23 | 0.00 | 59 | 1011.5 |
| 20260502114609 | 16 | 34 | 0.0 | 0.0 | 0.00 | 0.23 | 0.00 | 59 | 1011.5 |
| 20260502114602 | 16 | 42 | 0.0 | 0.0 | 0.00 | 0.23 | 0.00 | 59 | 1011.5 |
| 20260502113603 | 16 | 38 | 0.0 | 0.0 | 0.00 | 0.23 | 0.00 | 58 | 1011.5 |
| 20260502113103 | 16 | 50 | 0.0 | 0.0 | 0.00 | 0.23 | 0.00 | 58 | 1011.5 |
| 20260502112602 | 17 | 53 | 0.0 | 0.0 | 0.00 | 0.23 | 0.00 | 58 | 1011.5 |
| 20260502112104 | 17 | 26 | 0.0 | 0.0 | 0.00 | 0.23 | 0.00 | 58 | 1011.6 |
| 20260502111602 | 18 | 333 | 0.0 | 0.0 | 0.00 | 0.23 | 0.00 | 57 | 1011.7 |
| 20260502111101 | 18 | 76 | 0.0 | 0.0 | 0.00 | 0.23 | 0.00 | 57 | 1011.6 |
| 20260502110601 | 18 | 255 | 0.0 | 0.0 | 0.00 | 0.23 | 0.00 | 57 | 1011.7 |
| 20260502110103 | 18 | 267 | 0.0 | 0.0 | 0.00 | 0.23 | 0.00 | 57 | 1011.7 |
| 20260502105602 | 18 | 223 | 0.0 | 0.0 | 0.00 | 0.23 | 0.00 | 57 | 1011.8 |
| 20260502105104 | 18 | 271 | 0.0 | 0.0 | 0.00 | 0.23 | 0.00 | 57 | 1011.7 |
| 20260502104635 | 18 | 331 | 0.0 | 0.0 | 0.00 | 0.23 | 0.00 | 57 | 1011.8 |
| 20260502104625 | 18 | 326 | 0.0 | 0.0 | 0.00 | 0.23 | 0.00 | 57 | 1011.8 |
| 20260502103603 | 17 | 308 | 0.0 | 0.0 | 0.00 | 0.23 | 0.00 | 58 | 1011.8 |
| 20260502103104 | 17 | 304 | 0.0 | 0.0 | 0.00 | 0.23 | 0.00 | 58 | 1011.8 |
| 20260502102602 | 17 | 211 | 0.0 | 0.0 | 0.00 | 0.23 | 0.00 | 58 | 1011.9 |
| 20260502102122 | 17 | 190 | 0.0 | 0.0 | 0.00 | 0.23 | 0.00 | 58 | 1012.0 |
| 20260502102114 | 17 | 227 | 0.0 | 0.0 | 0.00 | 0.23 | 0.00 | 58 | 1011.9 |
| 20260502101103 | 18 | 229 | 0.0 | 0.0 | 0.00 | 0.23 | 0.00 | 58 | 1012.0 |
| 20260502100602 | 18 | 261 | 0.0 | 0.0 | 0.00 | 0.23 | 0.00 | 58 | 1012.0 |
| 20260502091345 | 16 | 208 | 0.0 | 0.0 | 0.00 | 0.23 | 0.00 | 59 | 1012.0 |
| 20260502090603 | 16 | 204 | 0.0 | 0.0 | 0.00 | 0.23 | 0.00 | 59 | 1011.9 |
| 20260502090103 | 16 | 245 | 0.0 | 0.0 | 0.00 | 0.23 | 0.00 | 59 | 1012.0 |
| 20260502080103 | 13 | 251 | 0.0 | 0.0 | 0.00 | 0.23 | 0.00 | 59 | 1012.0 |
| 20260502071103 | 11 | 182 | 0.0 | 0.0 | 0.00 | 0.23 | 0.00 | 60 | 1012.2 |
| 20260502070604 | 11 | 181 | 0.0 | 0.0 | 0.00 | 0.23 | 0.00 | 60 | 1012.1 |
| 20260502065634 | 10 | 192 | 0.0 | 0.0 | 0.00 | 0.23 | 0.00 | 61 | 1012.1 |
| 20260502065622 | 11 | 192 | 0.0 | 0.0 | 0.00 | 0.23 | 0.00 | 61 | 1012.1 |
| 20260502064603 | 10 | 199 | 0.0 | 0.0 | 0.00 | 0.23 | 0.00 | 61 | 1012.2 |
| 20260502064101 | 10 | 200 | 0.0 | 0.0 | 0.00 | 0.23 | 0.00 | 61 | 1012.3 |
| 20260502063600 | 10 | 218 | 0.0 | 0.0 | 0.00 | 0.23 | 0.00 | 61 | 1012.2 |
| 20260502063059 | 10 | 205 | 0.0 | 0.0 | 0.00 | 0.23 | 0.00 | 61 | 1012.1 |
| 20260502062559 | 10 | 211 | 0.0 | 0.0 | 0.00 | 0.23 | 0.00 | 61 | 1012.2 |
| 20260502062057 | 10 | 202 | 0.0 | 0.0 | 0.00 | 0.23 | 0.00 | 61 | 1012.1 |
| 20260502061557 | 9 | 213 | 0.0 | 0.0 | 0.00 | 0.23 | 0.00 | 61 | 1012.1 |
| 20260502061057 | 9 | 205 | 0.0 | 0.0 | 0.00 | 0.23 | 0.00 | 62 | 1012.1 |
| 20260502060555 | 9 | 193 | 0.0 | 0.0 | 0.00 | 0.23 | 0.00 | 62 | 1012.1 |
| 20260502060057 | 9 | 216 | 0.0 | 0.0 | 0.00 | 0.23 | 0.00 | 62 | 1012.2 |
| 20260502055554 | 9 | 217 | 0.0 | 0.0 | 0.00 | 0.23 | 0.00 | 62 | 1012.2 |
| 20260502055055 | 9 | 217 | 0.0 | 0.0 | 0.00 | 0.23 | 0.00 | 62 | 1012.1 |
| 20260502054837 | 9 | 218 | 0.0 | 0.0 | 0.00 | 0.23 | 0.00 | 62 | 1012.0 |
| 20260502054055 | 9 | 215 | 0.0 | 0.0 | 0.00 | 0.23 | 0.00 | 62 | 1012.0 |
| 20260502053553 | 9 | 232 | 0.0 | 0.0 | 0.00 | 0.23 | 0.00 | 62 | 1012.0 |
| 20260502053338 | 9 | 213 | 0.0 | 0.0 | 0.00 | 0.23 | 0.00 | 62 | 1012.1 |
| 20260502052553 | 9 | 213 | 0.0 | 0.0 | 0.00 | 0.23 | 0.00 | 62 | 1012.0 |
| 20260502052054 | 9 | 222 | 0.0 | 0.0 | 0.00 | 0.23 | 0.00 | 62 | 1012.0 |
| 20260502051552 | 9 | 208 | 0.0 | 0.0 | 0.00 | 0.23 | 0.00 | 62 | 1011.9 |
| 20260502051335 | 9 | 209 | 0.0 | 0.0 | 0.00 | 0.23 | 0.00 | 62 | 1011.9 |
| 20260502050544 | 9 | 208 | 0.0 | 0.0 | 0.00 | 0.23 | 0.00 | 62 | 1012.0 |